STARLINK-32414, 61667

Orbit data source: Space-Track

STARLINK-32414, 61667 is a payload satellite owned by SpaceX/Seattle (US) in LEO that was launched on Sat, 26 Oct 2024 UTC via an FALCON 9 launch vehicle from the Air Force Eastern Test Range (AFETR). Payload-class satellites include a variety of spacecraft equipped with specific instruments for various scientific and technological missions. These include communications satellites like Starlink; space stations such as the ISS; scientific satellites like the Hubble; Earth observation satellites from companies like Planet Labs, Umbra, and HawkEye 360; GPS; miniature CubeSats for education and research; and military/defense satellites.

Loading next visibility...
Identifier
61667, 2024-193G
Orbit
LEO
Country
Flag of USUS
Related business
Manufacturer
SpaceX/Seattle
Mission
Operational Commercial Communications
Bus & Motor
STARLINK V2M, Unknown motor
Mass
730 kg wet, ~700 kg dry
Launch date (UTC)
2024-10-26 (1 year ago)
Launch vehicle
FALCON 9
Launch site
Air Force Eastern Test Range (AFETR)
Object type
Payload
Rocket body
Debris
Shape & HBR
Box + 2 Pan, 17.7 m
Radar Cross Section
33.884 m², Large (>1 m²)

Expand to show TLE details & history
Last TLE update: 6 hours ago

TLE from 6 hours ago
0 STARLINK-32414
1 61667U 24193G   25312.13794534  .00001245  00000-0  54197-4 0  9996
2 61667  53.1606 295.8097 0001455 100.6512 259.4652 15.30185508 57910
Epoch: 2025-11-08T03:18Z
TLE epoch observation values (Epoch: 2025-11-08T03:18:38.477Z)
Latitude
-0.00007°
Longitude
-161.42254°
Altitude
476.341 km
Speed
7.629 km/s
True Right ascension
19h 43m 14s
True Declination
0° 00' 00"
Sunlit
Object was in daylight at epoch
Visualization orbit readout
Latitude
Unknown
Longitude
Unknown
Altitude
Unknown
Speed
Unknown
Apparent Right ascension
Unknown
Apparent Declination
Unknown
Sunlit
N/A
Visualization observer readout
Local Sidereal Time
05:44:17
Azimuth
Unknown
Elevation
Unknown
Doppler factor
Unknown
Orbital elements
Apogee altitude
476.512 km
Perigee altitude
474.517 km
Semi-major axis
6,853.652 km
Eccentricity
0.00015
Inclination
53.1606°
RAAN
295.8097°
Arg. of periapsis
100.6512°
True anomaly
259.44881°
Mean anomaly
259.4652°
Eccentric anomaly
259.457°
Mean motion
3.82525 °/min
Orbital period
94.11 mins
BSTAR
0.000054197
Loading maneuver chart data...
Computing Atmospheric mass density...
Loading historical data...
Loading historical data...
Loading historical data...
Loading historical data...
Loading historical data...
Loading historical data...
Loading historical data...

Documentation

Showing up to 5 results
|